Weather History for LIRN - October, 2014

Change the Weather History Date:

Monday, October 27, 2014

  Actual Average Record
Temperature  
Mean Temperature 60 °F -  
Max Temperature 68 °F 64 °F 82 °F (1999)
Min Temperature 52 °F 47 °F 46 °F (1997)
Degree Days  
Heating Degree Days 5    
Growing Degree Days 10 (Base 50)    
Moisture  
Dew Point 44 °F    
Average Humidity 55    
Maximum Humidity 72    
Minimum Humidity 31    
Precipitation  
Precipitation 0.00 in 0.21 in - ()
Sea Level Pressure  
Sea Level Pressure 30.15 in    
Wind  
Wind Speed 7 mph ()    
Max Wind Speed 12 mph    
Max Gust Speed -    
Visibility 12.1 miles    
Events      
Averages and records for this station are not official NWS values.
T = Trace of Precipitation, MM = Missing Value Source: Averaged Metar Reports

Daily Weather History Graph

Daily Weather History Graph

Search for Another Location

Airport or City:

Trip Planner

Search our weather history database for the weather conditions in past years. The results will help you decide how hot, cold, wet, or windy it might be!

Date:

Astronomy

Oct. 27, 2014 Rise Set
Actual Time 6:27 AM CET 5:05 PM CET
Civil Twilight 5:59 AM CET 5:33 PM CET
Nautical Twilight 5:26 AM CET 6:05 PM CET
Astronomical Twilight 4:55 AM CET 6:37 PM CET
Moon 9:47 AM CET (10/27) 7:54 PM CET (10/27)
Length of Visible Light 11h 34m
Length of Day
10h 38m
Waxing Crescent, 13% of the Moon is Illuminated
Oct 27
Waxing Crescent
Oct 31
First Quarter
Nov 6
Full
Nov 14
Last Quarter
Nov 22
New

Hourly Weather History & Observations

Time (CET) Temp. Dew Point Humidity Pressure Visibility Wind Dir Wind Speed Gust Speed Precip Events Conditions
12:20 AM 57.2 °F 44.6 °F 63% 30.15 in - NNE 5.8 mph - N/A   Clear
12:50 AM 57.2 °F 44.6 °F 63% 30.15 in - NNE 6.9 mph - N/A   Clear
1:00 AM 57 °F 45 °F 53% 30.18 in 9 mi NNE 6.9 mph - -  
1:20 AM 57.2 °F 44.6 °F 63% 30.18 in - NNE 4.6 mph - N/A   Clear
1:50 AM 57.2 °F 44.6 °F 63% 30.15 in - North 5.8 mph - N/A   Clear
2:20 AM 55.4 °F 44.6 °F 67% 30.15 in - NNE 5.8 mph - N/A   Clear
2:50 AM 55.4 °F 44.6 °F 67% 30.15 in - North 5.8 mph - N/A   Clear
3:20 AM 55.4 °F 44.6 °F 67% 30.15 in - NNE 4.6 mph - N/A   Clear
3:50 AM 53.6 °F 42.8 °F 67% 30.15 in - North 4.6 mph - N/A   Clear
4:00 AM 54 °F 45 °F 62% 30.17 in 9 mi North 4.6 mph - -  
4:20 AM 53.6 °F 42.8 °F 67% 30.15 in - North 3.5 mph - N/A   Clear
4:50 AM 53.6 °F 44.6 °F 72% 30.15 in - NNE 5.8 mph - N/A   Clear
5:20 AM 55.4 °F 44.6 °F 67% 30.15 in - NNE 6.9 mph - N/A   Clear
5:50 AM 55.4 °F 44.6 °F 67% 30.15 in - NNE 6.9 mph - N/A   Clear
6:20 AM 55.4 °F 44.6 °F 67% 30.15 in 6.2 mi NNE 8.1 mph - N/A   Partly Cloudy
6:50 AM 55.4 °F 44.6 °F 67% 30.15 in 6.2 mi NNE 6.9 mph - N/A   Partly Cloudy
7:00 AM 55 °F 45 °F 59% 30.18 in 19 mi NNE 6.9 mph - -   Scattered Clouds
7:20 AM 57.2 °F 44.6 °F 63% 30.15 in - NNE 6.9 mph - N/A   Clear
7:50 AM 57.2 °F 44.6 °F 63% 30.18 in - NNE 6.9 mph - N/A   Clear
8:20 AM 60.8 °F 46.4 °F 59% 30.18 in - NNE 9.2 mph - N/A   Clear
8:50 AM 62.6 °F 46.4 °F 55% 30.18 in - NNE 9.2 mph - N/A   Clear
9:20 AM 62.6 °F 46.4 °F 55% 30.18 in - NE 8.1 mph - N/A   Clear
9:50 AM 64.4 °F 46.4 °F 52% 30.18 in - NE 11.5 mph - N/A   Clear
10:00 AM 64 °F 46 °F 41% 30.19 in 19 mi ENE 10.4 mph - -  
10:20 AM 64.4 °F 44.6 °F 49% 30.18 in - ENE 9.2 mph - N/A   Clear
10:50 AM 66.2 °F 44.6 °F 46% 30.18 in - ENE 11.5 mph - N/A   Clear
11:20 AM 66.2 °F 46.4 °F 49% 30.15 in - NE 10.4 mph - N/A   Clear
11:50 AM 66.2 °F 44.6 °F 46% 30.15 in - ENE 6.9 mph - N/A   Clear
12:20 PM 68.0 °F 44.6 °F 43% 30.15 in - NE 8.1 mph - N/A   Clear
12:50 PM 68.0 °F 44.6 °F 43% 30.12 in - NNE 10.4 mph - N/A   Clear
1:00 PM 67 °F 44 °F 32% 30.14 in 19 mi NE 11.5 mph - -  
1:20 PM 68.0 °F 44.6 °F 43% 30.12 in - NE 11.5 mph - N/A   Clear
1:50 PM 66.2 °F 42.8 °F 43% 30.12 in - NE 10.4 mph - N/A   Clear
2:20 PM 68.0 °F 42.8 °F 40% 30.12 in - NE 10.4 mph - N/A   Clear
2:50 PM 66.2 °F 44.6 °F 46% 30.12 in 6.2 mi ENE 10.4 mph - N/A   Partly Cloudy
3:20 PM 66.2 °F 42.8 °F 43% 30.12 in - ENE 10.4 mph - N/A   Clear
3:50 PM 66.2 °F 42.8 °F 43% 30.12 in - ENE 10.4 mph - N/A   Clear
4:00 PM 66 °F 43 °F 31% 30.13 in 19 mi ENE 9.2 mph - -  
4:20 PM 64.4 °F 42.8 °F 45% 30.12 in 6.2 mi ENE 11.5 mph - N/A   Partly Cloudy
4:50 PM 64.4 °F 44.6 °F 49% 30.12 in 6.2 mi ENE 9.2 mph - N/A   Partly Cloudy
5:20 PM 62.6 °F 44.6 °F 52% 30.12 in - ENE 10.4 mph - N/A   Clear
5:50 PM 62.6 °F 44.6 °F 52% 30.12 in - ENE 10.4 mph - N/A   Clear
6:20 PM 60.8 °F 44.6 °F 55% 30.12 in - ENE 10.4 mph - N/A   Clear
6:50 PM 59.0 °F 44.6 °F 59% 30.15 in - NE 9.2 mph - N/A   Clear
7:00 PM 60 °F 45 °F 46% 30.15 in 16 mi NE 8.1 mph - -  
7:20 PM 59.0 °F 44.6 °F 59% 30.15 in - NE 6.9 mph - N/A   Clear
7:50 PM 57.2 °F 44.6 °F 63% 30.15 in - NNE 6.9 mph - N/A   Clear
8:20 PM 57.2 °F 42.8 °F 59% 30.15 in - NNE 5.8 mph - N/A   Clear
8:50 PM 57.2 °F 42.8 °F 59% 30.15 in - NNE 5.8 mph - N/A   Clear
9:20 PM 57.2 °F 42.8 °F 59% 30.15 in - NNE 6.9 mph - N/A   Clear
9:50 PM 57.2 °F 42.8 °F 59% 30.15 in - North 6.9 mph - N/A   Clear
10:00 PM 57 °F 43 °F 48% 30.16 in 16 mi North 6.9 mph - -  
10:20 PM 57.2 °F 42.8 °F 59% 30.15 in - NNE 6.9 mph - N/A   Clear
10:50 PM 57.2 °F 42.8 °F 59% 30.12 in - NNE 6.9 mph - N/A   Clear
11:20 PM 57.2 °F 44.6 °F 63% 30.12 in - North 8.1 mph - N/A   Clear
11:50 PM 57.2 °F 44.6 °F 63% 30.12 in - NNE 8.1 mph - N/A   Clear